Regional Weather Roundup
Issued by NWS

Home | Current Version | Previous Version | Text Only | Print | Product List | Glossary On
Versions: 1 2 3 4 5 6 7 8 9 10 11 12 13 14 15 16 17 18 19 20 21 22 23 24 25 26 27 28 29 30 31 32 33 34 35 36 37 38 39 40 41 42 43 44 45 46 47 48
000
ASUS45 KSLC 150110
RWRUT

UTAH REGIONAL WEATHER ROUNDUP
NATIONAL WEATHER SERVICE SALT LAKE CITY UT
700 PM MDT SUN SEP 14 2014

UTZ001>011-023>025-150200-

NORTHERN UTAH

CITY           SKY/WX    TMP DP  RH WIND       PRES   REMARKS
HILL AFB       NOT AVBL
LOGAN          CLEAR     80  42  25 SE5       30.01F
OGDEN          PTCLDY    80  36  20 CALM      30.00F
PROVO AIRPORT  MOCLDY    73  54  49 VRB3      30.02S
SALT LAKE CITY PTCLDY    84  36  18 N7        29.98F
VERNAL         MOCLDY    74  41  30 N8        30.08R
WENDOVER       PTCLDY    81  30  16 CALM      29.99F
HEBER CITY     MOCLDY    70  41  35 CALM      30.09F
WEST JORDAN    CLEAR     82  39  21 NW5       30.03S

$$

UTZ012>022-026-027-150200-

SOUTHERN UTAH

CITY           SKY/WX    TMP DP  RH WIND       PRES   REMARKS
BRYCE CANYON   PTCLDY    73  35  25 CALM      30.25S
CEDAR CITY     CLEAR     80  34  19 SW9       30.09S
MILFORD        CLEAR     83  33  16 S7        30.02S
MOAB/CYNLANDS  CLEAR     85  36  17 S5        29.98S
PRICE          MOCLDY    80  29  15 SW3       30.11R
ST GEORGE      MOCLDY    95  41  15 CALM      29.89F HX  91
KANAB            N/A     82  41  23 NW7       30.06F

$$

REGIONAL REPORTS     COLORADO/ARIZONA

CITY           SKY/WX    TMP DP  RH WIND       PRES   REMARKS
CRAIG, CO      MOCLDY    68  36  30 W8        30.14R
GRAND JUNCTION CLEAR     79  39  23 NW3       30.03S
RIFLE          CLEAR     79  33  19 W13       30.08S
MONTROSE       PTCLDY    75  48  38 CALM      30.13S
CORTEZ         CLEAR     78  43  28 SW5       30.12F
PAGE, AZ       PTCLDY    91  34  13 CALM      29.98F
GRAND CANYON   PTCLDY    70  47  43 CALM      30.18F
KINGMAN        CLEAR     92  42  17 VRB3      29.93S
FLAGSTAFF      MOCLDY    68  51  54 SW8       30.22S

$$

REGIONAL REPORTS    NEVADA/IDAHO/WYOMING

CITY           SKY/WX    TMP DP  RH WIND       PRES   REMARKS
LAS VEGAS, NV    N/A     99  40  13 SE7       29.77S HX  94
ELY            PTCLDY    79  32  18 S15       30.11F
ELKO           CLEAR     84  23  10 W9        30.02S
POCATELLO, ID  PTCLDY    82  25  12 SW15      30.01S
BURLEY         CLEAR     78  40  25 SE5       29.98S
EVANSTON, WY   PTCLDY    70  32  24 W10       30.21S
ROCK SPRINGS   PTCLDY    72  24  16 W16       30.16R

$$



USA.gov is the U.S. government's official web portal to all federal, state and local government web resources and services.